Torna al catalogo

CZ-6A DEB

AttivoPO
NORAD 60666·DEBRIS·🇨🇳 China

Lanciato Aug 6, 2024 da Taiyuan Satellite Launch Center

Loading…

Prossimi Passaggi (prossime 24 ore)

TLE

AggiornatoSource: Space-Track

Epoca: Sep 14, 2026, 07:08 UTC

1 60666U 24140BT  26257.29788645  .00000101  00000-0  49742-4 0  9998
2 60666  89.0050 267.2054 0095449 307.6845  51.5710 14.08002724107812

Traccia CZ-6A DEB in tempo reale con AllMySat

Download on the App Store